FENGYUN 1C DEB

Satellite information

Favourite Embed

Satellite Type and Status

DEBRISIN ORBIT

Key statistics

Satellite FENGYUN 1C DEB at a glance.

Uptime

9715

Days in orbit

Revolutions

≈ 14.4

Per day

Orbit

SSO

Sun Synchronous Orbit

Inclination

98.9

Latest

Satellite identification and parameters

Extended collection of information and parameters for FENGYUN 1C DEB.

Object identification

Identified? True

Debris? True

Object name: FENGYUN 1C DEB

International designator: 1999-025BHA

Object number (NORAD): 31148

Object ID (CCSDS): 31148

Country: PEOPLES REPUBLIC OF CHINA (PRC)

Current information (Y/N): Y

RCS size: SMALL

Orbital parameters

Period: 99.769 minutes

Inclination: 98.8655 deg

SMA: 7125.634 km

Apoapsis: 844.85 km

Periapsis: 650.148 km

RAAN: 230.106 deg

Eccentricy: 0.0136621

Argument of periapsis: 56.9202 deg

Mean anomaly: 304.5019 deg

Mean motion: 14.43336097 rev/day

Mean motion (dot): 0.00004658 rev/day2

B* drag term: 0.001247 1/REarth

Two-line elements (TLE)

Creation date: Dec. 10, 2025, 10:56 p.m.

Reference frame: TEME

Reference center: EARTH

Epoch: Dec. 10, 2025, 3 p.m. UTC

TLE line 0: 0 FENGYUN 1C DEB

TLE line 1: 1 31148U 99025BHA 25344.62530014 .00004658 00000-0 12470-2 0 9990

TLE line 2: 2 31148 98.8655 230.1060 0136621 56.9202 304.5019 14.43336097975008

Live tracking on map

Real-time ground track for satellite FENGYUN 1C DEB.

In-orbit conjunctions

A list of the most updated potential collisions computed for object FENGYUN 1C DEB.

Target Orbit TCA Probability of collision Miss distance Type
TAURUS R/B LEO 2025-12-04 17:58:48 0.0001153091 429.0 (m) ROCKET BODY
SL-16 DEB LEO 2024-11-16 22:22:52 0.0001677029 922.0 (m) DEBRIS
FENGYUN 1C DEB SSO 2024-09-02 14:59:21 0.0001123001 894.0 (m) DEBRIS
IRIDIUM 920 LEO 2024-08-30 14:46:29 0.0002471459 512.0 (m) PAYLOAD

Associated space launch

Chinese polar orbiting meteorological satellite

FENGYUN 1C DEB was lifted into orbit during the mission ‘Long March 4B | Feng Yun 1C’, on board a Long March 4B space rocket.

The launch took place on May 10, 1999, 1:33 a.m. from Launch Complex 7.

For more information about the launch, click the button.

Launch to space Long March 4B | Feng Yun 1C
Long March 4B | Feng Yun 1C

Agency: N/A

Status: Launch Successful

Launch date: May 10, 1999, 1:33 a.m. UTC

Rocket: Long March 4B

Launch pad: Launch Complex 7

Location: Taiyuan Satellite Launch Center, People's Republic of China

...

Latest news about this satellite

There are no fresh news available about this satellite. Check back as we update our databases every day.


Newsletter sign-up

Weekly statistics, charts and insights to help you stay on top of the space industry.